DW4558 Weather Reports


time (UTC)temp
C
wind
direction
speed
KPH
gust
KPH
rain 1hr
cm
rain 24hr
cm
rain mn
cm
humidity
%
barometer
mb
20260508040013 5 253 6.4 12.9 0.05 0.25 0.03 95 1004.0
20260508034511 5 224 4.8 8.0 0.05 0.23 0.23 95 1004.0
20260508033011 5 212 3.2 6.4 0.05 0.23 0.23 95 1003.9
20260508030010 5 69 1.6 6.4 0.05 0.20 0.20 94 1003.8
20260508024510 5 355 0.0 8.0 0.03 0.18 0.18 94 1003.8
20260508023010 5 19 4.8 9.7 0.03 0.18 0.18 94 1003.8
20260508021508 5 360 8.0 16.1 0.05 0.15 0.15 94 1003.7
20260508020012 5 20 4.8 12.9 0.05 0.15 0.15 94 1003.6
20260508014511 5 279 1.6 11.3 0.08 0.15 0.15 94 1003.5
20260508013009 5 287 4.8 14.5 0.08 0.15 0.15 93 1003.5
20260508011508 6 265 16.1 27.4 0.05 0.13 0.13 92 1003.5
20260508010007 6 264 14.5 24.1 0.03 0.10 0.10 91 1003.3
20260508004509 6 252 17.7 33.8 0.00 0.08 0.08 90 1003.2
20260508003106 6 256 17.7 32.2 0.00 0.08 0.08 87 1003.2
20260508001506 6 244 11.3 29.0 0.00 0.08 0.08 86 1002.9
20260508000006 7 237 16.1 29.0 0.00 0.08 0.08 85 1002.9
20260507234505 7 263 16.1 29.0 0.00 0.10 0.08 85 1002.7
20260507233004 7 267 19.3 33.8 0.00 0.10 0.08 84 1002.6
20260507231504 7 269 12.9 27.4 0.00 0.10 0.08 84 1002.5
20260507230003 7 252 19.3 27.4 0.00 0.10 0.08 85 1002.5
20260507224505 7 274 12.9 24.1 0.00 0.13 0.08 85 1002.5
20260507223002 7 273 12.9 25.7 0.00 0.13 0.08 84 1002.5
20260507221502 7 273 11.3 29.0 0.00 0.13 0.08 85 1002.5
20260507220001 7 243 11.3 22.5 0.00 0.13 0.08 88 1002.5
20260507214500 7 240 8.0 17.7 0.00 0.15 0.08 89 1002.4
20260507213101 6 240 12.9 27.4 0.00 0.15 0.08 87 1002.5
20260507211601 7 234 22.5 48.3 0.00 0.15 0.08 83 1002.8
20260507204559 7 266 17.7 32.2 0.00 0.15 0.08 88 1002.3
20260507203059 7 270 14.5 24.1 0.00 0.15 0.08 88 1002.2
20260507201609 7 240 16.1 25.7 0.03 0.15 0.08 90 1002.1
20260507200105 7 254 14.5 30.6 0.03 0.15 0.08 90 1002.2
20260507194557 7 250 19.3 35.4 0.03 0.20 0.08 91 1002.2
20260507193057 7 242 19.3 41.8 0.03 0.20 0.08 92 1002.4
20260507191556 7 241 25.7 41.8 0.05 0.18 0.05 92 1002.4
20260507190056 7 271 20.9 33.8 0.05 0.18 0.05 92 1002.5
20260507184559 7 265 17.7 38.6 0.05 0.36 0.05 92 1002.6
20260507183055 7 270 22.5 43.5 0.05 0.36 0.05 90 1002.6
20260507181554 7 246 20.9 51.5 0.00 0.30 0.00 86 1002.6
20260507180053 10 261 30.6 49.9 0.00 0.30 0.00 78 1002.4
20260507174602 10 242 33.8 54.7 0.00 0.48 0.00 75 1002.2
20260507173052 10 267 19.3 41.8 0.00 0.48 0.00 75 1002.2
20260507171601 11 237 25.7 48.3 0.00 0.48 0.00 77 1002.2
20260507170051 11 263 20.9 41.8 0.00 0.48 0.00 73 1002.3
20260507164547 10 257 29.0 45.1 0.00 0.71 0.00 79 1002.3
20260507163044 10 239 25.7 41.8 0.00 0.71 0.00 79 1002.5
20260507161540 9 292 29.0 46.7 0.00 0.71 0.00 82 1002.8
20260507160041 9 256 38.6 53.1 0.00 0.71 0.00 81 1003.0
20260507154537 9 240 33.8 51.5 0.00 0.99 0.00 84 1003.3
20260507153032 8 248 35.4 51.5 0.00 0.99 0.00 86 1003.4
20260507151531 8 248 27.4 38.6 0.00 0.99 0.00 87 1003.5
20260507150027 8 217 19.3 29.0 0.00 0.99 0.00 88 1003.5
20260507144529 7 249 19.3 35.4 0.00 1.17 0.00 89 1003.6
20260507143023 7 261 19.3 35.4 0.00 1.17 0.00 90 1003.6
20260507141523 7 279 16.1 33.8 0.00 1.17 0.00 90 1003.6
20260507140021 7 239 12.9 30.6 0.00 1.17 0.00 91 1003.7
20260507134521 7 267 25.7 40.2 0.00 1.32 0.00 91 1003.7
20260507133021 7 271 24.1 41.8 0.00 1.32 0.00 91 1003.7
20260507131520 7 259 22.5 38.6 0.00 1.32 0.00 91 1003.6
20260507130019 7 213 19.3 29.0 0.00 1.32 0.00 92 1003.5
20260507124516 7 286 20.9 35.4 0.00 1.40 0.00 92 1003.8
20260507123012 6 292 16.1 30.6 0.00 1.40 0.00 92 1003.9
20260507121511 6 252 19.3 33.8 0.00 1.40 0.00 92 1003.7
20260507120009 6 249 19.3 33.8 0.00 1.40 0.00 93 1003.7
20260507114507 6 250 16.1 38.6 0.00 1.40 0.00 93 1003.6
20260507113012 6 250 17.7 35.4 0.00 1.40 0.00 94 1003.8
20260507111506 6 252 17.7 27.4 0.00 1.40 0.00 94 1003.8
20260507110003 6 211 14.5 24.1 0.00 1.40 0.00 94 1003.7
20260507104611 5 257 14.5 22.5 0.00 1.40 0.00 94 1003.7
20260507103113 5 235 11.3 17.7 0.00 1.40 0.00 94 1003.7
20260507101557 5 251 9.7 17.7 0.00 1.40 0.00 94 1003.7
20260507100056 5 273 8.0 19.3 0.00 1.40 0.00 95 1003.5
20260507094554 5 268 8.0 22.5 0.00 1.40 0.00 95 1003.4
20260507093058 4 203 9.7 25.7 0.00 1.40 0.00 95 1003.4
20260507091554 4 240 12.9 22.5 0.00 1.40 0.00 95 1003.6
20260507090048 4 244 12.9 22.5 0.00 1.40 0.00 95 1003.7
20260507084547 4 252 12.9 25.7 0.00 1.40 0.00 95 1003.9
20260507083044 5 229 12.9 22.5 0.00 1.40 0.00 95 1004.0
20260507081543 5 248 16.1 24.1 0.00 1.40 0.00 95 1003.8
20260507080044 5 233 11.3 22.5 0.00 1.40 0.00 96 1004.0
20260507074539 5 254 9.7 19.3 0.00 1.40 0.00 96 1004.0
20260507073039 5 227 12.9 24.1 0.00 1.40 0.00 96 1004.1
20260507071539 5 242 14.5 27.4 0.00 1.40 0.00 96 1003.9
20260507070036 5 259 12.9 25.7 0.00 1.40 0.00 97 1003.9
20260507064534 5 248 12.9 27.4 0.00 1.40 0.00 97 1003.9
20260507063042 5 238 14.5 24.1 0.00 1.40 0.00 97 1004.0
20260507061533 5 244 11.3 22.5 0.00 1.40 0.00 97 1004.1
20260507060046 5 237 16.1 25.7 0.00 1.40 0.00 97 1004.1
20260507054538 5 246 14.5 22.5 0.00 1.40 0.00 97 1004.3
20260507053028 5 264 12.9 30.6 0.00 1.40 0.00 97 1004.4
20260507051526 5 258 14.5 24.1 0.00 1.40 0.00 97 1004.5
20260507050024 5 236 11.3 22.5 0.00 1.40 0.00 97 1004.4
20260507044540 5 272 8.0 19.3 0.00 1.40 0.00 97 1004.6
20260507043017 5 254 12.9 17.7 0.00 1.40 0.00 97 1004.6
20260507041514 5 240 8.0 22.5 0.00 1.40 0.00 97 1004.6